STARLINK-1742 (46376 NORAD) Tracking and Keplerian Element Data

This shows tracking and keplerian element data for the satellite.

Feedback or suggestion? Click here.




ElementValue
Catalog46376
NameSTARLINK-1742
Epoch Orbit179
Epoch Day338.66668981
Epoch Year2020
RAAN342.9086
Inclination52.9973
Eccentricity0.0001961
Argument of Perigee20.7202
Mean Anonmoly82.5497
Mean Motion15.62830874
Decay Rate-5.539E-05
L11 46376U 20062BD 20338.66668981 -.00005539 00000-0 -54509-4 0 9993
L22 46376 52.9973 342.9086 0001961 20.7202 82.5497 15.62830874 1791

Live tracking and technical data element details for STARLINK-1742 (NORAD 46376). STARLINK-1742 can be tracked NOW for your location showing map with azimuth and elevation plus other details from your city location.

Track the satellite on the map from your city or location and see movement details for azimuth, elevation, latitude, longitude, range, height, and movement on the map or in text.







IsCatalogInMostPopularTable: catalog: 46376, numindb: 26
Update: records affected: 1



GetName: 46376 STARLINK-1742

Hit Count: updated at: Sun, 06 Dec 2020 00:39:01 GMT